Погода в Тузи-Сярмусе

Россия / Чувашская Республика     55°34′48″N   47°08′10″E
темп.,
°C
ветер,
м/с
пор.,
м/с
влажн.,
%
обл.,
%
осадки,
мм/ч
давл.,
гПа
погр.,
м
21 октября, чт
чт2100:000юз3777100 0.0 1017151
03:00+1ююз41169100 0.0 1015489
06:00+1ююз81477100 0.0 1010775
09:00+1ююз81797100 2.4 1006710
12:00+2ююз91892100 1.9 1002693
15:00+5юз91991100 4.4 1000777
18:00+8зюз81788100 0.0 1000694
21:00+9зюз71588100 0.0 1000548
22 октября, пт
пт2200:00+8юз6149298 0.0 1001442
03:00+8юз61490100 0.0 1000441
06:00+9юз81684100 0.0 998575
09:00+10юз81678100 0.0 998829
12:00+11зюз91571100 0.0 998999
15:00+12зюз91572100 0.0 998958
18:00+11зюз9157498 0.0 10001196
21:00+10з915740 0.1 1003981
23 октября, сб
сб2300:00+8зюз714730 0.0 1005696
03:00+7зюз714785 0.0 1006627
06:00+6юз614831 0.0 1006539
09:00+7юз712754 0.0 1007920
12:00+10юз813575 0.0 10071503
15:00+10юз6125224 0.0 10071576
18:00+7ююз4106841 0.0 1008215
21:00+6ююз498760 0.1 1007202
24 октября, вс
вс2400:00+6юз41084100 0.7 1007472
03:00+4зюз6118816 0.7 1008481
06:00+4з61077100 0.0 1009887
09:00+4зюз5973100 0.0 10101129
12:00+5зюз5965100 0.0 10101360
15:00+6юз576693 0.1 1011927
18:00+4зюз4872100 0.0 1012670
21:00+4зюз488388 0.1 1013494
25 октября, пн
пн2500:00+2зюз489198 0.0 1014222
03:00+3з4790100 0.1 1015370
06:00+2сз589699 0.1 1016615
09:00+2ссз798391 0.3 1019801
12:00+2ссз7965100 0.1 10221250
15:00+2ссз710515 0.1 10241319
18:000ссз612675 0.0 1027602
21:00−2сз511775 0.0 1029356